Hourly Weather Roundup
Issued by NWS

Home | Current Version | Previous Version | Text Only | Print | Product List | Glossary On
Versions: 1 2 3 4 5 6 7 8 9 10 11 12 13 14 15 16 17 18 19 20 21 22 23 24 25 26 27 28 29 30 31 32 33 34 35 36 37 38 39 40 41 42 43 44 45 46 47 48 49 50
747
NZUS43 KILX 221310
HWRCRS

CRS HOURLY WEATHER ROUNDUP
NATIONAL WEATHER SERVICE, LINCOLN IL
800 AM CDT FRI MAY 22 2015


CITY           SKY/WX    TMP DP  RH WIND       PRES   REMARKS
CHAMPAIGN      SUNNY     58  48  69 W9        30.18R
LAWRENCEVILLE  SUNNY     57  46  66 SW10      30.22F
PEORIA         SUNNY     60  46  59 NW3       30.17R
SPRINGFIELD    SUNNY     59  47  64 W8        30.19R
$$


CITY           SKY/WX    TMP DP  RH WIND       PRES   REMARKS
BLOOMINGTON    SUNNY     58  48  69 NW8       30.18R
DECATUR        SUNNY     58  47  66 W12       30.19R
EFFINGHAM      SUNNY     56  44  65 SW8       30.22S
FLORA          SUNNY     54  46  72 SW9       30.23S
GALESBURG      SUNNY     57  47  71 NW5       30.18R
JACKSONVILLE   SUNNY     61  47  60 W9        30.20R
LACON          SUNNY     56  45  64 CALM      30.16S
LINCOLN        SUNNY     60  48  65 NW7       30.17R
LITCHFIELD     SUNNY     56  46  70 W7        30.21S

CITY           SKY/WX    TMP DP  RH WIND       PRES   REMARKS
MACOMB         SUNNY     58  48  70 W7        30.21R
MATTOON        SUNNY     57  46  66 SW8       30.18R
MOLINE         SUNNY     57  44  62 CALM      30.17R
OLNEY          SUNNY     54  45  71 SW6       30.23S
PARIS          SUNNY     60  47  64 W15       30.19R
PONTIAC        SUNNY     58  49  71 N6        30.17R
QUINCY         SUNNY     59  45  59 NW9       30.20R
RANTOUL        SUNNY     60  48  66 W12       30.17R
ROBINSON       SUNNY     55  45  69 SW8       30.22R
TAYLORVILLE    SUNNY     55  46  71 W6        30.20S
TERRE HAUTE    SUNNY     55  46  71 W9        30.20R
$$


CITY           SKY/WX    TMP DP  RH WIND       PRES   REMARKS
BURLINGTON     SUNNY     57  48  72 CALM      30.18R
CHICAGO        SUNNY     54  38  54 NE9       30.17R
DES MOINES     PTSUNNY   57  44  62 NW3       30.20R
EVANSVILLE     SUNNY     56  46  69 SW9       30.27R
INDIANAPOLIS   SUNNY     57  44  62 W12       30.17R
KANSAS CITY    CLOUDY    57  47  69 CALM      30.24R
MILWAUKEE      SUNNY     50  35  56 NE8       30.20R
ST LOUIS       MOSUNNY   59  46  62 W8        30.24R
$$




USA.gov is the U.S. government's official web portal to all federal, state and local government web resources and services.